Location: Carbonear
(47.7333°N, 53.2500°W)
Time: 00:40:23
(UTC+00:00)

Oscar 11 - Visible Passes

Search period start: 01 December 2022 00:00
Search period end: 11 December 2022 00:00
Orbit: 610 x 623 km, 97.6° (Epoch: 30 November)

Date Brightness Start Highest point End Pass type
(mag) Time Alt. Az. Time Alt. Az. Time Alt. Az.
01 Dec 9.7 07:25:11 10° NE 07:26:19 15° NE 07:26:19 15° NE visible
01 Dec 8.1 09:00:52 10° N 09:03:23 29° NNW 09:03:23 29° NNW visible
02 Dec 9.4 07:41:06 10° NNE 07:42:25 18° NE 07:42:25 18° NE visible
02 Dec 8.4 09:17:22 10° N 09:19:29 22° NNW 09:19:29 22° NNW visible
02 Dec 9.7 20:15:02 10° SSW 20:18:31 23° W 20:22:01 10° NW visible
03 Dec 9.2 07:57:08 10° NNE 07:58:32 19° NNE 07:58:32 19° NNE visible
03 Dec 8.7 09:33:58 10° NNW 09:35:36 17° NW 09:35:36 17° NW visible
03 Dec 10.0 20:32:09 10° SW 20:34:55 17° W 20:37:41 10° NW visible
04 Dec 9.0 08:13:18 10° NNE 08:14:40 20° NNE 08:14:40 20° NNE visible
04 Dec 8.9 09:50:49 10° NNW 09:51:45 13° NW 09:51:45 13° NW visible
04 Dec 10.4 20:49:59 10° WSW 20:51:21 11° W 20:52:43 10° WNW visible
05 Dec 9.0 08:29:32 10° N 08:30:49 19° N 08:30:49 19° N visible
06 Dec 9.0 08:45:52 10° N 08:47:00 18° N 08:47:00 18° N visible
07 Dec 9.0 09:02:15 10° N 09:03:11 16° N 09:03:11 16° N visible
08 Dec 9.1 09:18:46 10° N 09:19:23 13° NNW 09:19:23 13° NNW visible
08 Dec 9.8 20:16:31 10° SW 20:19:54 22° W 20:23:18 10° NW visible
09 Dec 9.8 07:58:29 10° NNE 07:58:31 10° NNE 07:58:31 10° NNE visible
09 Dec 9.2 09:35:23 10° NNW 09:35:36 11° NNW 09:35:36 11° NNW visible
09 Dec 10.0 20:33:41 10° SW 20:36:18 16° W 20:38:56 10° NW visible
10 Dec 9.7 08:14:38 10° NNE 08:14:44 11° NNE 08:14:44 11° NNE visible
10 Dec 10.5 20:51:44 10° W 20:52:44 11° W 20:53:43 10° WNW visible
